WZZ4D1 LEMG-LEMD

Flight info

Callsign WZZ4D1
Flight time 0h 42m
Altitude 32000
Route BLN DCT MORAL
Aircraft A20N/M-V/N

Departure

Time 2026-05-06 14:49
Airport Málaga-Costa del Sol Airport (LEMG)

Arrival

Time 2026-05-06 15:32
Airport Adolfo Suárez Madrid–Barajas Airport (LEMD)
Time Latitude Longitude Altitude Speed Heading
2026-05-06 14:34 36.67430 -4.49254 43 ft 0 kts
2026-05-06 14:41 36.67418 -4.49258 44 ft 2 kts 27°
2026-05-06 14:41 36.67405 -4.49268 45 ft 2 kts 43°
2026-05-06 14:42 36.67396 -4.49282 46 ft 2 kts 60°
2026-05-06 14:42 36.67390 -4.49299 47 ft 2 kts 77°
2026-05-06 14:42 36.67388 -4.49318 47 ft 2 kts 94°
2026-05-06 14:42 36.67391 -4.49336 46 ft 2 kts 111°
2026-05-06 14:43 36.67398 -4.49352 46 ft 2 kts 128°
2026-05-06 14:43 36.67408 -4.49366 45 ft 2 kts 133°
2026-05-06 14:43 36.67411 -4.49370 45 ft 0 kts 131°
2026-05-06 14:45 36.67411 -4.49369 45 ft 0 kts 131°
2026-05-06 14:45 36.67390 -4.49340 45 ft 8 kts 135°
2026-05-06 14:45 36.67349 -4.49327 45 ft 7 kts 197°
2026-05-06 14:45 36.67347 -4.49414 45 ft 15 kts 308°
2026-05-06 14:46 36.67421 -4.49518 45 ft 17 kts 311°
2026-05-06 14:46 36.67503 -4.49633 47 ft 19 kts 312°
2026-05-06 14:46 36.67599 -4.49767 48 ft 21 kts 312°
2026-05-06 14:46 36.67698 -4.49907 49 ft 21 kts 311°
2026-05-06 14:47 36.67800 -4.50050 49 ft 24 kts 311°
2026-05-06 14:47 36.67916 -4.50212 47 ft 25 kts 311°
2026-05-06 14:47 36.68036 -4.50379 48 ft 26 kts 313°
2026-05-06 14:47 36.68158 -4.50551 47 ft 26 kts 311°
2026-05-06 14:48 36.68279 -4.50719 47 ft 25 kts 311°
2026-05-06 14:48 36.68389 -4.50883 50 ft 23 kts 312°
2026-05-06 14:48 36.68492 -4.51030 52 ft 21 kts 294°
2026-05-06 14:48 36.68413 -4.51134 53 ft 18 kts 192°
2026-05-06 14:49 36.68308 -4.51056 53 ft 28 kts 133°
2026-05-06 14:49 36.67992 -4.50617 52 ft 105 kts 131°
2026-05-06 14:49 36.67359 -4.49744 82 ft 161 kts 132°
2026-05-06 14:49 36.66582 -4.48728 692 ft 165 kts 133°
2026-05-06 14:50 36.65816 -4.47665 1433 ft 167 kts 131°
2026-05-06 14:50 36.65053 -4.46570 2091 ft 170 kts 131°
2026-05-06 14:50 36.64255 -4.45425 2576 ft 183 kts 131°
2026-05-06 14:50 36.63384 -4.44192 3030 ft 200 kts 131°
2026-05-06 14:51 36.62426 -4.42845 3503 ft 217 kts 131°
2026-05-06 14:51 36.61363 -4.41354 3946 ft 240 kts 132°
2026-05-06 14:51 36.60302 -4.39732 4803 ft 243 kts 121°
2026-05-06 14:51 36.59672 -4.37836 5751 ft 242 kts 104°
2026-05-06 14:52 36.59314 -4.35811 6686 ft 242 kts 101°
2026-05-06 14:52 36.58987 -4.33738 7563 ft 246 kts 101°
2026-05-06 14:52 36.58655 -4.31655 8404 ft 249 kts 102°
2026-05-06 14:52 36.58379 -4.29559 9236 ft 253 kts 91°
2026-05-06 14:53 36.58795 -4.27438 10009 ft 261 kts 61°
2026-05-06 14:53 36.59887 -4.25599 10670 ft 272 kts 51°
2026-05-06 14:53 36.61109 -4.23750 11419 ft 279 kts 51°
2026-05-06 14:53 36.62380 -4.21905 12204 ft 284 kts 43°
2026-05-06 14:54 36.63992 -4.20472 12952 ft 289 kts 25°
2026-05-06 14:54 36.65895 -4.19558 13449 ft 304 kts 17°
2026-05-06 14:54 36.67983 -4.18748 13868 ft 321 kts 15°
2026-05-06 14:54 36.70186 -4.17902 14269 ft 340 kts 16°
2026-05-06 14:55 36.72488 -4.17006 14627 ft 357 kts 15°
2026-05-06 14:55 36.74941 -4.16064 14953 ft 375 kts 15°
2026-05-06 14:55 36.78337 -4.14752 15350 ft 398 kts 16°
2026-05-06 14:55 36.80158 -4.14044 15541 ft 409 kts 16°
2026-05-06 14:56 36.82918 -4.12967 15818 ft 424 kts 16°
2026-05-06 14:56 36.85737 -4.11866 16215 ft 434 kts 16°
2026-05-06 14:56 36.88637 -4.10732 16826 ft 437 kts 16°
2026-05-06 14:56 36.91552 -4.09591 17475 ft 440 kts 16°
2026-05-06 14:57 36.94495 -4.08440 18086 ft 444 kts 16°
2026-05-06 14:57 36.97468 -4.07274 18627 ft 448 kts 16°
2026-05-06 14:57 37.00439 -4.06110 19097 ft 454 kts 15°
2026-05-06 14:57 37.03482 -4.04916 19557 ft 459 kts 15°
2026-05-06 14:58 37.06513 -4.03726 20010 ft 464 kts 15°
2026-05-06 14:58 37.09605 -4.02512 20448 ft 468 kts 15°
2026-05-06 14:58 37.12749 -4.01277 20868 ft 473 kts 15°
2026-05-06 14:58 37.15934 -4.00024 21307 ft 478 kts 15°
2026-05-06 14:59 37.19096 -3.98783 21733 ft 481 kts 14°
2026-05-06 14:59 37.22352 -3.97549 22140 ft 486 kts 13°
2026-05-06 14:59 37.25608 -3.96337 22545 ft 490 kts 13°
2026-05-06 14:59 37.28850 -3.95133 22939 ft 494 kts 13°
2026-05-06 15:00 37.32180 -3.93897 23319 ft 497 kts 13°
2026-05-06 15:00 37.35524 -3.92650 23709 ft 501 kts 13°
2026-05-06 15:00 37.38841 -3.91410 24110 ft 503 kts 13°
2026-05-06 15:00 37.42217 -3.90145 24683 ft 501 kts 13°
2026-05-06 15:01 37.45559 -3.88890 25274 ft 499 kts 13°
2026-05-06 15:01 37.48891 -3.87636 25790 ft 498 kts 13°
2026-05-06 15:01 37.52192 -3.86395 26250 ft 498 kts 13°
2026-05-06 15:01 37.55527 -3.85140 26718 ft 497 kts 12°
2026-05-06 15:02 37.58846 -3.83890 27176 ft 497 kts 13°
2026-05-06 15:02 37.62155 -3.82641 27655 ft 496 kts 12°
2026-05-06 15:02 37.65465 -3.81391 28125 ft 496 kts 12°
2026-05-06 15:02 37.68739 -3.80155 28554 ft 496 kts 12°
2026-05-06 15:03 37.72059 -3.78901 28982 ft 496 kts 12°
2026-05-06 15:03 37.75388 -3.77641 29389 ft 497 kts 12°
2026-05-06 15:03 37.78708 -3.76384 29803 ft 497 kts 12°
2026-05-06 15:03 37.82040 -3.75120 30216 ft 498 kts 12°
2026-05-06 15:04 37.85317 -3.73877 30560 ft 499 kts 12°
2026-05-06 15:04 37.88664 -3.72607 30873 ft 501 kts 12°
2026-05-06 15:04 37.92030 -3.71326 31166 ft 503 kts 12°
2026-05-06 15:04 37.95396 -3.70046 31452 ft 505 kts 12°
2026-05-06 15:05 37.98767 -3.68762 31753 ft 506 kts 12°
2026-05-06 15:05 38.02144 -3.67475 31912 ft 508 kts 11°
2026-05-06 15:05 38.05543 -3.66179 31916 ft 509 kts 11°
2026-05-06 15:06 38.12343 -3.63705 31922 ft 507 kts
2026-05-06 15:06 38.19253 -3.62091 31927 ft 500 kts
2026-05-06 15:07 38.26114 -3.61336 31927 ft 497 kts 358°
2026-05-06 15:07 38.33026 -3.60711 31931 ft 497 kts 358°
2026-05-06 15:08 38.39906 -3.60064 31933 ft 497 kts 358°
2026-05-06 15:08 38.46772 -3.59403 31937 ft 496 kts 358°
2026-05-06 15:09 38.53674 -3.58733 31932 ft 495 kts 358°
2026-05-06 15:09 38.60524 -3.58066 31928 ft 495 kts 358°
2026-05-06 15:10 38.67425 -3.57395 31927 ft 494 kts 358°
2026-05-06 15:10 38.74271 -3.56725 31923 ft 494 kts 358°
2026-05-06 15:11 38.81132 -3.56057 31925 ft 494 kts 358°
2026-05-06 15:11 38.88018 -3.55384 31924 ft 495 kts 358°
2026-05-06 15:12 38.94839 -3.54890 31625 ft 489 kts 352°
2026-05-06 15:12 38.98179 -3.55314 31002 ft 479 kts 343°
2026-05-06 15:12 39.01369 -3.56318 30272 ft 468 kts 335°
2026-05-06 15:12 39.04375 -3.57857 29529 ft 458 kts 328°
2026-05-06 15:13 39.07124 -3.59820 28754 ft 452 kts 322°
2026-05-06 15:13 39.09780 -3.61964 27931 ft 452 kts 322°
2026-05-06 15:13 39.12412 -3.64135 27115 ft 454 kts 322°
2026-05-06 15:13 39.15091 -3.66344 26270 ft 456 kts 322°
2026-05-06 15:14 39.17751 -3.68528 25416 ft 458 kts 323°
2026-05-06 15:14 39.20444 -3.70729 24500 ft 460 kts 323°
2026-05-06 15:14 39.23106 -3.72898 23783 ft 454 kts 324°
2026-05-06 15:14 39.25755 -3.75049 23272 ft 451 kts 324°
2026-05-06 15:15 39.28426 -3.77224 22721 ft 448 kts 324°
2026-05-06 15:15 39.31043 -3.79355 22138 ft 444 kts 324°
2026-05-06 15:15 39.33608 -3.81449 21545 ft 440 kts 324°
2026-05-06 15:15 39.36185 -3.83556 20958 ft 436 kts 324°
2026-05-06 15:16 39.38735 -3.85643 20378 ft 432 kts 324°
2026-05-06 15:16 39.41252 -3.87703 19789 ft 428 kts 324°
2026-05-06 15:16 39.43749 -3.89744 19194 ft 424 kts 325°
2026-05-06 15:16 39.46346 -3.91534 18501 ft 425 kts 338°
2026-05-06 15:17 39.49259 -3.92104 17731 ft 430 kts
2026-05-06 15:17 39.52195 -3.91323 16908 ft 435 kts 19°
2026-05-06 15:17 39.54893 -3.89562 16093 ft 435 kts 28°
2026-05-06 15:17 39.57510 -3.87647 15276 ft 434 kts 28°
2026-05-06 15:18 39.60136 -3.85744 14538 ft 430 kts 28°
2026-05-06 15:18 39.62717 -3.83903 13883 ft 424 kts 28°
2026-05-06 15:18 39.65276 -3.82101 13255 ft 418 kts 28°
2026-05-06 15:18 39.67826 -3.80320 12648 ft 412 kts 28°
2026-05-06 15:19 39.70343 -3.78567 12083 ft 405 kts 28°
2026-05-06 15:19 39.72774 -3.76879 11654 ft 394 kts 28°
2026-05-06 15:19 39.75173 -3.75214 11204 ft 385 kts 28°
2026-05-06 15:19 39.77514 -3.73589 10833 ft 375 kts 28°
2026-05-06 15:20 39.79755 -3.72033 10627 ft 361 kts 28°
2026-05-06 15:20 39.81931 -3.70521 10446 ft 347 kts 28°
2026-05-06 15:20 39.84004 -3.69080 10296 ft 333 kts 28°
2026-05-06 15:20 39.86012 -3.67685 10173 ft 319 kts 28°
2026-05-06 15:21 39.87952 -3.66336 10077 ft 305 kts 28°
2026-05-06 15:21 39.89770 -3.65072 9993 ft 292 kts 28°
2026-05-06 15:21 39.91544 -3.63836 9650 ft 290 kts 28°
2026-05-06 15:21 39.93342 -3.62581 9277 ft 289 kts 28°
2026-05-06 15:22 39.95091 -3.61360 8929 ft 287 kts 28°
2026-05-06 15:22 39.96847 -3.60133 8592 ft 285 kts 28°
2026-05-06 15:22 39.98578 -3.58925 8261 ft 283 kts 28°
2026-05-06 15:22 40.00311 -3.57713 7919 ft 281 kts 28°
2026-05-06 15:23 40.02039 -3.56505 7570 ft 280 kts 28°
2026-05-06 15:23 40.03743 -3.55313 7216 ft 278 kts 28°
2026-05-06 15:23 40.05439 -3.54126 6877 ft 276 kts 28°
2026-05-06 15:23 40.07126 -3.52946 6544 ft 275 kts 28°
2026-05-06 15:24 40.08802 -3.51771 6224 ft 272 kts 28°
2026-05-06 15:24 40.10450 -3.50616 5968 ft 267 kts 28°
2026-05-06 15:24 40.12075 -3.49476 5719 ft 261 kts 28°
2026-05-06 15:24 40.13640 -3.48378 5475 ft 255 kts 28°
2026-05-06 15:25 40.15194 -3.47287 5230 ft 250 kts 28°
2026-05-06 15:25 40.16698 -3.46200 5027 ft 245 kts 33°
2026-05-06 15:25 40.18036 -3.44825 5000 ft 240 kts 41°
2026-05-06 15:25 40.19243 -3.43403 4986 ft 227 kts 42°
2026-05-06 15:26 40.20379 -3.42041 4979 ft 216 kts 41°
2026-05-06 15:26 40.21577 -3.40887 4950 ft 217 kts 31°
2026-05-06 15:26 40.22889 -3.39900 4714 ft 215 kts 28°
2026-05-06 15:26 40.24202 -3.38959 4448 ft 214 kts 28°
2026-05-06 15:27 40.25527 -3.38150 4158 ft 213 kts 11°
2026-05-06 15:27 40.26998 -3.38189 4004 ft 211 kts 350°
2026-05-06 15:27 40.28448 -3.38567 4001 ft 213 kts 346°
2026-05-06 15:27 40.29859 -3.39174 3997 ft 213 kts 335°
2026-05-06 15:28 40.31158 -3.40124 3996 ft 214 kts 327°
2026-05-06 15:28 40.32377 -3.41237 3996 ft 214 kts 324°
2026-05-06 15:28 40.33572 -3.42422 3996 ft 214 kts 322°
2026-05-06 15:28 40.34742 -3.43616 3996 ft 214 kts 322°
2026-05-06 15:29 40.35907 -3.44812 3995 ft 214 kts 322°
2026-05-06 15:29 40.37093 -3.46023 4039 ft 212 kts 322°
2026-05-06 15:29 40.38237 -3.47188 3954 ft 203 kts 322°
2026-05-06 15:29 40.39330 -3.48301 3654 ft 194 kts 322°
2026-05-06 15:30 40.40348 -3.49336 3407 ft 180 kts 322°
2026-05-06 15:30 40.41316 -3.50319 3151 ft 169 kts 322°
2026-05-06 15:30 40.42208 -3.51226 2934 ft 154 kts 322°
2026-05-06 15:30 40.43007 -3.52038 2730 ft 141 kts 322°
2026-05-06 15:31 40.43775 -3.52818 2568 ft 139 kts 322°
2026-05-06 15:31 40.44538 -3.53594 2398 ft 139 kts 322°
2026-05-06 15:31 40.45303 -3.54373 2214 ft 138 kts 321°
2026-05-06 15:32 40.46812 -3.55894 1963 ft 129 kts 321°
2026-05-06 15:32 40.47413 -3.56510 1979 ft 86 kts 324°
2026-05-06 15:32 40.47742 -3.56890 1989 ft 40 kts 296°
2026-05-06 15:32 40.47799 -3.57046 1995 ft 2 kts 289°
2026-05-06 15:33 40.47800 -3.57049 1995 ft 0 kts 288°
2026-05-06 15:33 40.47802 -3.57056 1996 ft 5 kts 288°
2026-05-06 15:33 40.47792 -3.57107 1998 ft 6 kts 231°
2026-05-06 15:33 40.47703 -3.57091 1999 ft 18 kts 145°
2026-05-06 15:34 40.47608 -3.56978 1995 ft 19 kts 142°
2026-05-06 15:34 40.47492 -3.56863 1991 ft 18 kts 141°
2026-05-06 15:34 40.47404 -3.56783 1989 ft 14 kts 171°
2026-05-06 15:34 40.47335 -3.56854 1990 ft 12 kts 236°
2026-05-06 15:35 40.47327 -3.56933 1994 ft 6 kts 307°
2026-05-06 15:35 40.47328 -3.56976 1995 ft 4 kts 248°
2026-05-06 15:35 40.47317 -3.57007 1997 ft 3 kts 244°
2026-05-06 15:35 40.47322 -3.56992 1997 ft 0 kts 244°
2026-05-06 15:36 40.47319 -3.57000 1996 ft 4 kts 245°
2026-05-06 15:36 40.47317 -3.57007 1997 ft 0 kts 245°